When you browse on this site, cookies collect data to enhance your experience and personalize the content and advertising you see.
Visit our Privacy Policy to learn more. By continuing to use the site, you agree to this use of cookies and data.
  • In Spain
  • List of Countries
  • For 7 days
  • Water Temperature
  • Weather Map
  • Weather Widgets
  • user-avatar
    Login

    Hourly Weather Truto

    Today, 18 October, Friday

    Time Temperature Precipitation Wind Pressure Humidity
    00:00 +9°C° 0 mm 7 mps 746 mmHg 86%
    01:00 +9°C° 0.1 mm 8 mps 746 mmHg 85%
    02:00 +8°C° 0.1 mm 9 mps 746 mmHg 83%
    03:00 +8°C° 0.1 mm 9 mps 746 mmHg 81%
    04:00 +8°C° 0.2 mm 10 mps 746 mmHg 81%
    05:00 +8°C° 0.2 mm 10 mps 747 mmHg 82%
    06:00 +9°C° 0 mm 11 mps 747 mmHg 84%
    07:00 +9°C° 0.5 mm 11 mps 747 mmHg 82%
    08:00 +10°C° 0.5 mm 12 mps 747 mmHg 81%
    09:00 +10°C° 0.5 mm 12 mps 747 mmHg 79%
    10:00 +10°C° 0.4 mm 13 mps 747 mmHg 79%
    11:00 +10°C° 0.4 mm 13 mps 747 mmHg 78%
    12:00 +12°C° 0.4 mm 13 mps 747 mmHg 77%
    13:00 +12°C° 0.4 mm 13 mps 747 mmHg 77%
    14:00 +12°C° 0.4 mm 13 mps 747 mmHg 78%
    15:00 +12°C° 0.4 mm 13 mps 746 mmHg 78%
    16:00 +10°C° 0.2 mm 12 mps 746 mmHg 79%
    17:00 +11°C° 0.2 mm 11 mps 746 mmHg 80%
    18:00 +9°C° 0.2 mm 11 mps 746 mmHg 80%
    19:00 +9°C° 0.1 mm 10 mps 746 mmHg 81%
    20:00 +10°C° 0.1 mm 9 mps 746 mmHg 82%
    21:00 +10°C° 0.1 mm 9 mps 747 mmHg 82%
    22:00 +10°C° 0.2 mm 9 mps 747 mmHg 83%
    23:00 +10°C° 0.2 mm 8 mps 747 mmHg 85%

    Tomorrow, 19 October, Saturday

    Time Temperature Precipitation Wind Pressure Humidity
    00:00 +10°C° 0.2 mm 8 mps 747 mmHg 86%
    01:00 +9°C° 0.2 mm 8 mps 747 mmHg 87%
    02:00 +9°C° 0.2 mm 7 mps 747 mmHg 88%
    03:00 +9°C° 0.2 mm 6 mps 746 mmHg 89%
    04:00 +9°C° 0.1 mm 6 mps 747 mmHg 89%
    05:00 +9°C° 0.1 mm 5 mps 747 mmHg 89%
    06:00 +9°C° 0.1 mm 5 mps 747 mmHg 89%
    07:00 +9°C° 0.1 mm 5 mps 748 mmHg 87%
    08:00 +10°C° 0.1 mm 5 mps 748 mmHg 85%
    09:00 +12°C° 0.1 mm 5 mps 748 mmHg 84%
    10:00 +12°C° 0.1 mm 5 mps 748 mmHg 82%
    11:00 +12°C° 0.1 mm 4 mps 749 mmHg 81%
    12:00 +12°C° 0.1 mm 4 mps 749 mmHg 80%
    13:00 +12°C° 0.1 mm 4 mps 749 mmHg 79%
    14:00 +12°C° 0.1 mm 3 mps 749 mmHg 78%
    15:00 +12°C° 0.1 mm 3 mps 750 mmHg 77%
    16:00 +11°C° 0 mm 3 mps 750 mmHg 78%
    17:00 +11°C° 0 mm 3 mps 750 mmHg 80%
    18:00 +10°C° 0 mm 3 mps 751 mmHg 81%
    19:00 +9°C° 0 mm 3 mps 751 mmHg 83%
    20:00 +8°C° 0 mm 4 mps 751 mmHg 84%
    21:00 +8°C° 0 mm 4 mps 752 mmHg 86%
    22:00 +8°C° 0 mm 4 mps 752 mmHg 85%
    23:00 +8°C° 0 mm 4 mps 752 mmHg 84%

    Day after tomorrow, 20 October, Sunday

    Time Temperature Precipitation Wind Pressure Humidity
    00:00 +8°C° 0 mm 4 mps 752 mmHg 83%
    01:00 +9°C° 0.1 mm 5 mps 753 mmHg 84%
    02:00 +9°C° 0.1 mm 5 mps 753 mmHg 84%
    03:00 +10°C° 0.1 mm 5 mps 753 mmHg 85%
    04:00 +9°C° 0.1 mm 6 mps 753 mmHg 85%
    05:00 +9°C° 0.1 mm 6 mps 753 mmHg 85%
    06:00 +9°C° 0.1 mm 7 mps 753 mmHg 85%
    07:00 +9°C° 0 mm 7 mps 754 mmHg 83%
    08:00 +10°C° 0 mm 7 mps 754 mmHg 82%
    09:00 +10°C° 0 mm 7 mps 755 mmHg 80%
    10:00 +11°C° 0 mm 7 mps 755 mmHg 77%
    11:00 +11°C° 0 mm 8 mps 755 mmHg 74%
    12:00 +12°C° 0 mm 8 mps 756 mmHg 72%
    13:00 +11°C° 0 mm 8 mps 756 mmHg 72%
    14:00 +11°C° 0 mm 8 mps 756 mmHg 72%
    15:00 +10°C° 0 mm 9 mps 756 mmHg 72%
    16:00 +10°C° 0 mm 8 mps 757 mmHg 72%
    17:00 +9°C° 0 mm 8 mps 757 mmHg 72%
    18:00 +9°C° 0 mm 7 mps 758 mmHg 72%
    19:00 +8°C° 0 mm 7 mps 758 mmHg 72%
    20:00 +8°C° 0 mm 7 mps 759 mmHg 72%
    21:00 +8°C° 0 mm 7 mps 759 mmHg 72%
    22:00 +8°C° 0 mm 7 mps 759 mmHg 73%
    23:00 +8°C° 0 mm 7 mps 759 mmHg 73%

    21 October, Monday

    Time Temperature Precipitation Wind Pressure Humidity
    00:00 +6°C° 0 mm 7 mps 759 mmHg 74%
    01:00 +7°C° 0 mm 6 mps 760 mmHg 76%
    02:00 +7°C° 0 mm 6 mps 760 mmHg 78%
    03:00 +7°C° 0 mm 5 mps 760 mmHg 80%
    04:00 +7°C° 0.1 mm 6 mps 761 mmHg 81%
    05:00 +7°C° 0.1 mm 6 mps 761 mmHg 82%
    06:00 +8°C° 0.1 mm 6 mps 761 mmHg 84%
    07:00 +8°C° 0.1 mm 6 mps 762 mmHg 83%
    08:00 +9°C° 0.1 mm 6 mps 762 mmHg 82%
    09:00 +10°C° 0.1 mm 6 mps 763 mmHg 82%
    10:00 +10°C° 0.1 mm 6 mps 763 mmHg 79%
    11:00 +12°C° 0.1 mm 5 mps 764 mmHg 76%
    12:00 +12°C° 0.1 mm 5 mps 764 mmHg 73%
    13:00 +12°C° 0 mm 5 mps 764 mmHg 73%
    14:00 +12°C° 0 mm 5 mps 764 mmHg 72%
    15:00 +12°C° 0 mm 4 mps 764 mmHg 72%
    16:00 +11°C° 0 mm 4 mps 764 mmHg 75%
    17:00 +10°C° 0 mm 4 mps 764 mmHg 79%
    18:00 +8°C° 0 mm 4 mps 765 mmHg 83%
    19:00 +9°C° 0 mm 3 mps 765 mmHg 84%
    20:00 +8°C° 0 mm 3 mps 765 mmHg 85%
    21:00 +8°C° 0 mm 3 mps 765 mmHg 86%
    22:00 +8°C° 0 mm 3 mps 765 mmHg 86%
    23:00 +8°C° 0 mm 2 mps 765 mmHg 86%

    22 October, Tuesday

    Time Temperature Precipitation Wind Pressure Humidity
    00:00 +7°C° 0 mm 2 mps 765 mmHg 86%
    01:00 +7°C° 0 mm 2 mps 765 mmHg 86%
    02:00 +7°C° 0 mm 2 mps 765 mmHg 87%
    03:00 +7°C° 0 mm 2 mps 765 mmHg 87%
    04:00 +7°C° 0 mm 2 mps 765 mmHg 87%
    05:00 +7°C° 0 mm 2 mps 765 mmHg 88%
    06:00 +7°C° 0 mm 2 mps 765 mmHg 88%
    07:00 +8°C° 0 mm 2 mps 765 mmHg 87%
    08:00 +9°C° 0 mm 2 mps 765 mmHg 86%
    09:00 +10°C° 0 mm 2 mps 765 mmHg 85%
    10:00 +12°C° 0 mm 2 mps 765 mmHg 81%
    11:00 +13°C° 0 mm 2 mps 765 mmHg 76%
    12:00 +14°C° 0 mm 2 mps 765 mmHg 72%
    13:00 +13°C° 0 mm 1 mps 764 mmHg 72%
    14:00 +13°C° 0 mm 1 mps 764 mmHg 73%
    15:00 +13°C° 0 mm 1 mps 763 mmHg 73%
    16:00 +12°C° 0 mm 1 mps 763 mmHg 77%
    17:00 +11°C° 0 mm 1 mps 763 mmHg 82%
    18:00 +9°C° 0 mm 0 mps 763 mmHg 86%
    19:00 +9°C° 0 mm 1 mps 763 mmHg 86%
    20:00 +9°C° 0 mm 1 mps 763 mmHg 87%
    21:00 +9°C° 0 mm 1 mps 763 mmHg 88%
    22:00 +9°C° 0 mm 1 mps 762 mmHg 89%
    23:00 +9°C° 0 mm 1 mps 762 mmHg 90%

    23 October, Wednesday

    Time Temperature Precipitation Wind Pressure Humidity
    00:00 +9°C° 0 mm 1 mps 761 mmHg 91%
    01:00 +9°C° 0 mm 1 mps 761 mmHg 91%
    02:00 +8°C° 0 mm 2 mps 761 mmHg 91%
    03:00 +8°C° 0 mm 2 mps 760 mmHg 91%
    04:00 +8°C° 0 mm 2 mps 760 mmHg 91%
    05:00 +8°C° 0 mm 2 mps 760 mmHg 91%
    06:00 +8°C° 0 mm 2 mps 760 mmHg 91%
    07:00 +9°C° 0 mm 3 mps 759 mmHg 90%
    08:00 +10°C° 0 mm 3 mps 759 mmHg 88%
    09:00 +11°C° 0 mm 3 mps 759 mmHg 86%
    10:00 +12°C° 0 mm 4 mps 759 mmHg 82%
    11:00 +12°C° 0 mm 4 mps 759 mmHg 78%
    12:00 +13°C° 0 mm 5 mps 758 mmHg 74%
    13:00 +13°C° 0 mm 5 mps 758 mmHg 74%
    14:00 +13°C° 0 mm 5 mps 758 mmHg 74%
    15:00 +13°C° 0 mm 5 mps 757 mmHg 73%
    16:00 +12°C° 0 mm 5 mps 757 mmHg 78%
    17:00 +10°C° 0 mm 5 mps 757 mmHg 83%
    18:00 +9°C° 0 mm 5 mps 757 mmHg 87%
    19:00 +9°C° 0 mm 5 mps 757 mmHg 88%
    20:00 +9°C° 0 mm 5 mps 757 mmHg 88%
    21:00 +9°C° 0 mm 6 mps 757 mmHg 89%
    22:00 +9°C° 0 mm 6 mps 757 mmHg 89%
    23:00 +9°C° 0 mm 6 mps 757 mmHg 89%
    Show more